TimePDT,TemperatureF,Dew PointF,Humidity,Sea Level PressureIn,VisibilityMPH,Wind Direction,Wind SpeedMPH,Gust SpeedMPH,PrecipitationIn,Events,Conditions,WindDirDegrees,DateUTC
12:53 AM,43.0,41.0,93,30.11,10.0,Calm,Calm,-,N/A,,Clear,0,2013-03-31 07:53:00
1:53 AM,39.9,37.9,93,30.11,8.0,Calm,Calm,-,N/A,,Clear,0,2013-03-31 08:53:00
2:39 AM,39.2,37.4,93,30.08,1.8,Calm,Calm,-,N/A,,Partly Cloudy,0,2013-03-31 09:39:00
2:53 AM,37.9,37.0,97,30.10,2.0,NNW,3.5,-,N/A,,Scattered Clouds,340,2013-03-31 09:53:00
2:57 AM,37.4,35.6,93,30.07,1.8,North,4.6,-,N/A,,Mostly Cloudy,350,2013-03-31 09:57:00
3:01 AM,35.6,35.6,100,30.07,0.5,North,4.6,-,N/A,Fog,Fog,360,2013-03-31 10:01:00
3:12 AM,37.4,35.6,93,30.07,0.8,Calm,Calm,-,N/A,,Mist,0,2013-03-31 10:12:00
3:15 AM,37.4,37.4,100,30.07,1.5,Calm,Calm,-,N/A,,Scattered Clouds,0,2013-03-31 10:15:00
3:22 AM,39.2,37.4,93,30.06,9.0,Calm,Calm,-,N/A,,Scattered Clouds,0,2013-03-31 10:22:00
3:53 AM,41.0,39.0,93,30.08,10.0,Calm,Calm,-,N/A,,Clear,0,2013-03-31 10:53:00
4:53 AM,39.9,37.9,93,30.07,10.0,Calm,Calm,-,N/A,,Clear,0,2013-03-31 11:53:00
5:53 AM,37.9,36.0,93,30.08,9.0,Calm,Calm,-,N/A,,Clear,0,2013-03-31 12:53:00
6:53 AM,36.0,35.1,97,30.08,3.0,Calm,Calm,-,N/A,,Clear,0,2013-03-31 13:53:00
7:53 AM,46.0,39.0,76,30.08,10.0,NNW,3.5,-,N/A,,Clear,340,2013-03-31 14:53:00
8:53 AM,50.0,39.9,68,30.08,10.0,North,4.6,-,N/A,,Clear,360,2013-03-31 15:53:00
9:53 AM,54.0,39.9,59,30.07,10.0,NNE,5.8,-,N/A,,Clear,20,2013-03-31 16:53:00
10:53 AM,57.9,39.0,49,30.06,10.0,NNE,9.2,-,N/A,,Clear,20,2013-03-31 17:53:00
11:53 AM,62.1,41.0,46,30.06,10.0,North,4.6,-,N/A,,Clear,350,2013-03-31 18:53:00
12:53 PM,61.0,43.0,52,30.04,10.0,West,8.1,-,N/A,,Clear,280,2013-03-31 19:53:00
1:53 PM,62.1,42.1,48,30.03,10.0,Variable,5.8,-,N/A,,Clear,0,2013-03-31 20:53:00
2:53 PM,62.1,43.0,50,30.01,10.0,West,6.9,-,N/A,,Clear,280,2013-03-31 21:53:00
3:53 PM,64.0,44.1,48,29.99,10.0,WNW,5.8,-,N/A,,Clear,290,2013-03-31 22:53:00
4:53 PM,64.0,42.1,45,29.97,10.0,NW,5.8,-,N/A,,Clear,310,2013-03-31 23:53:00
5:53 PM,63.0,41.0,45,29.96,10.0,West,5.8,-,N/A,,Clear,270,2013-04-01 00:53:00
6:53 PM,59.0,43.0,55,29.95,10.0,West,5.8,-,N/A,,Clear,270,2013-04-01 01:53:00
7:53 PM,53.1,43.0,69,29.94,10.0,Calm,Calm,-,N/A,,Clear,0,2013-04-01 02:53:00
8:53 PM,50.0,43.0,77,29.95,10.0,Calm,Calm,-,N/A,,Clear,0,2013-04-01 03:53:00
9:53 PM,48.9,43.0,80,29.96,10.0,Calm,Calm,-,N/A,,Clear,0,2013-04-01 04:53:00
10:53 PM,46.9,43.0,86,29.97,10.0,Calm,Calm,-,N/A,,Clear,0,2013-04-01 05:53:00
11:53 PM,46.9,43.0,86,29.98,10.0,South,3.5,-,N/A,,Clear,180,2013-04-01 06:53:00